Wind_Speed
24 23 23 21 15 12 13 7 3 5 13 9 3 3 6 7 4 4 5 3 6 4 4 7 6 6 5 19 6 3 3 3 4 6 1 2 2 1 3 7 6 1 0 5
25 25 22 21 16 16 12 6 9 11 14 6 8 3 3 7 4 3 1 2 1 2 5 5 3 3 6 13 11 5 5 2 3 2 2 4 6 3 2 2 1 5 4 4
27 25 24 21 19 20 17 6 3 9 19 20 11 8 9 8 10 9 1 2 3 2 2 2 3 4 4 18 7 11 2 2 2 3 3 3 1 3 3 1 2 1 5 8
27 27 25 22 22 24 20 13 6 6 3 10 13 9 7 14 10 11 13 4 8 2 2 3 3 2 6 8 12 6 2 2 2 2 4 5 5 7 7 5 8 6 6 11
27 30 27 25 26 27 27 9 6 10 5 9 13 11 9 18 14 11 8 11 6 9 12 10 10 2 4 4 6 5 8 2 2 3 9 8 7 8 10 13 14 13 14 12
31 31 28 27 29 30 23 24 19 6 7 9 8 14 18 14 13 13 18 12 9 13 15 16 19 21 15 8 5 3 4 2 3 2 2 1 6 8 14 8 9 6 10 12
31 31 31 30 32 36 34 21 14 11 7 10 13 13 16 17 20 13 13 19 13 4 4 10 11 10 10 11 9 10 2 2 2 2 1 5 2 4 4 7 12 14 14 12
33 33 34 34 35 36 38 35 23 9 8 12 15 16 15 12 20 22 17 21 19 16 3 3 4 1 1 6 10 10 10 3 2 2 4 8 10 6 4 6 10 3 3 7
37 36 36 37 38 38 38 40 36 20 4 14 19 13 17 11 7 5 15 11 12 14 2 3 3 3 2 2 3 3 9 4 4 3 3 5 3 1 1 2 6 4 4 8
40 40 42 41 39 41 39 39 40 30 10 15 22 12 15 8 9 5 6 15 11 12 3 3 4 3 2 3 3 5 6 3 10 4 4 7 10 8 3 2 2 2 4 13
37 38 39 43 43 42 41 42 38 42 15 11 22 28 18 18 8 4 8 7 6 6 6 5 4 4 4 3 3 5 8 8 5 6 5 8 4 5 4 2 14 13 13 15
27 28 30 39 41 40 39 38 38 36 21 7 23 23 26 30 25 23 18 7 8 10 4 4 3 3 2 6 4 2 5 6 5 8 6 1 4 3 12 16 14 15 19 21
28 26 27 33 35 36 36 27 28 35 12 13 14 21 33 27 28 25 10 16 12 10 8 4 2 3 4 5 5 5 3 5 4 2 5 14 16 8 9 16 15 19 22 19
25 27 27 25 28 30 33 29 31 31 10 2 4 26 24 34 33 24 25 11 14 9 8 1 2 2 6 4 2 5 5 6 5 8 9 13 8 10 17 20 17 18 18 10
20 22 26 29 29 28 28 26 28 33 8 3 5 7 21 28 29 23 27 26 19 12 7 3 4 2 2 0 0 3 3 4 4 5 2 4 8 18 17 18 18 18 18 15
23 25 28 25 28 32 30 15 31 31 28 3 3 7 14 27 31 25 33 33 24 18 6 3 6 8 3 3 3 4 3 2 1 2 8 15 12 8 11 17 17 15 12 12
22 23 24 27 28 32 28 8 13 43 31 6 1 2 6 16 26 24 17 24 17 15 7 5 3 1 10 2 3 5 4 5 7 6 8 7 5 8 16 15 13 12 11 11
23 24 25 25 28 32 29 3 22 41 19 8 3 2 3 14 9 7 18 7 8 10 7 4 3 7 2 3 5 6 9 12 5 7 7 11 9 10 11 11 10 9 9 10
26 30 30 34 26 10 16 14 39 26 5 6 3 4 3 12 7 10 11 11 3 4 2 2 4 1 2 5 6 8 10 10 14 16 13 3 3 6 8 8 8 8 9 10
42 41 19 8 14 37 38 21 5 6 4 4 3 4 3 7 4 3 5 5 3 2 2 6 3 2 8 7 6 6 8 9 10 10 6 8 5 6 5 5 6 6 7 8
21 6 10 49 38 9 5 5 4 4 3 6 6 12 4 8 3 4 5 4 3 4 3 4 2 2 3 8 8 8 7 7 5 3 4 4 2 3 5 9 9 10 13 17
18 26 26 11 5 6 4 2 3 3 2 3 3 5 8 6 8 3 5 3 3 3 2 3 3 3 5 5 7 8 8 7 7 5 6 7 8 9 11 13 15 16 18 21
24 8 6 5 6 7 3 2 2 2 3 5 2 2 5 5 2 1 2 4 3 5 3 2 2 6 6 6 7 9 10 10 12 13 13 13 15 16 17 19 19 22 26 27
9 5 6 4 4 3 3 2 1 3 5 7 4 2 3 5 3 3 5 3 2 3 2 2 2 6 7 8 10 12 16 17 18 19 21 23 24 25 24 24 24 25 27 26
7 7 5 4 3 5 6 7 2 6 5 3 2 5 5 4 4 4 3 3 4 3 2 2 8 10 11 13 14 17 18 19 20 21 23 24 25 26 26 24 24 25 25 25
6 9 3 8 2 5 9 11 7 11 6 4 5 3 4 5 3 5 3 2 2 2 2 9 12 14 15 16 18 20 20 21 21 22 23 24 24 25 25 23 22 20 19 20
6 5 15 6 2 4 8 9 13 9 5 2 3 4 3 2 3 3 3 2 3 12 13 15 16 17 17 18 19 18 19 20 20 20 20 21 20 19 19 21 18 17 17 17
Wind_Direction
258 255 258 261 249 215 237 244 237 224 192 196 193 197 179 193 250 349 234 236 237 255 328 349 344 6 3 347 327 56 20 108 233 241 195 63 46 192 207 233 228 130 308 243
255 252 254 252 234 212 223 234 241 241 215 224 225 162 208 216 192 206 307 284 14 294 267 266 245 318 311 2 8 21 359 36 128 115 97 45 83 68 107 177 139 207 239 270
254 251 244 248 228 208 219 229 244 202 221 231 232 217 204 206 212 228 172 275 302 292 347 327 301 313 317 335 352 342 3 94 81 185 81 98 89 332 4 103 181 208 249 274
255 242 243 243 228 205 216 222 225 219 198 220 234 231 190 201 201 201 198 235 220 241 310 302 247 273 355 345 355 358 44 175 148 195 184 169 205 262 279 243 255 252 279 253
250 245 242 241 229 211 223 228 199 193 245 233 217 213 213 203 199 179 201 214 186 216 233 234 270 333 328 266 338 8 344 154 137 233 265 262 251 245 257 254 256 254 249 254
247 246 241 241 224 215 226 231 243 229 206 215 232 224 223 215 207 219 210 190 227 241 248 257 262 264 247 258 295 325 325 152 147 214 12 279 273 227 222 229 233 244 258 275
250 249 247 233 224 219 222 220 201 199 227 209 217 227 225 219 201 204 209 216 228 246 284 314 268 259 245 244 234 203 241 93 7 162 288 233 271 309 282 257 270 269 275 285
250 245 238 233 228 223 226 230 229 201 233 224 227 227 225 243 229 207 196 205 217 226 288 286 299 278 300 241 224 197 205 154 140 226 215 302 300 289 227 201 282 33 294 296
251 249 244 236 230 225 228 235 233 225 229 223 218 218 220 222 207 201 218 192 206 205 193 201 215 237 233 183 207 172 159 193 218 184 209 239 239 203 27 242 295 217 263 322
254 246 241 236 232 224 229 236 231 218 232 223 205 210 208 206 209 220 166 193 202 202 181 190 209 241 259 239 198 160 157 165 215 194 226 272 247 262 239 206 316 231 294 326
248 243 246 234 225 227 227 231 225 214 228 237 215 212 192 199 205 167 148 148 188 172 180 197 181 202 227 216 162 166 177 177 191 212 234 268 206 145 200 359 324 306 296 309
244 250 231 217 220 223 223 226 227 218 214 224 225 221 215 219 228 209 177 205 158 169 177 197 180 184 201 189 203 191 197 187 190 203 208 243 203 268 298 331 318 311 307 302
241 236 221 216 218 217 213 203 191 195 193 202 211 209 216 213 224 216 185 213 187 178 184 170 195 205 163 178 217 205 236 178 219 235 229 254 277 320 341 348 338 329 319 296
238 232 214 208 201 195 195 190 178 177 153 177 217 215 219 218 214 217 217 211 218 217 209 280 235 224 195 211 237 200 216 151 212 251 266 308 300 19 346 336 337 342 355 351
212 207 208 204 202 200 202 200 202 201 150 134 168 193 215 209 203 214 225 224 223 201 197 195 202 219 176 232 242 218 190 193 214 269 41 310 297 321 324 336 335 336 341 341
208 203 200 202 198 195 183 187 198 195 193 157 158 191 226 213 216 223 224 222 220 219 192 178 215 214 191 205 233 105 72 87 70 237 304 290 301 303 317 328 333 330 325 331
198 195 190 190 187 183 173 188 193 198 188 159 161 254 203 207 205 219 223 217 222 205 186 192 211 231 190 209 229 66 3 303 282 277 295 260 327 314 323 329 332 326 335 346
186 181 179 177 171 181 186 359 173 172 163 160 169 222 173 183 173 175 204 191 196 191 182 196 207 169 158 230 51 9 342 321 288 337 304 291 282 292 319 334 342 348 5 13
165 160 157 154 150 132 149 159 154 159 157 150 159 163 196 173 157 166 172 187 203 184 165 159 152 36 183 44 4 358 353 339 318 317 313 275 325 316 323 339 6 29 34 50
141 142 135 110 133 130 131 136 114 143 191 178 196 184 167 180 135 109 131 146 169 168 146 116 67 76 91 43 24 3 347 336 330 342 330 332 6 349 356 21 42 61 74 83
124 92 91 123 138 143 135 110 129 140 188 193 199 194 170 182 155 154 190 162 156 182 117 146 131 129 64 10 18 13 6 0 5 330 315 334 13 68 72 74 81 92 100 98
117 121 120 108 69 57 84 112 141 190 189 140 178 178 199 166 169 167 177 128 152 158 101 97 132 91 44 35 37 36 42 49 60 74 81 84 90 93 93 91 94 98 105 108
115 99 72 36 354 50 57 115 50 69 5 353 31 127 197 170 123 99 124 100 86 119 52 87 70 56 41 49 57 60 67 76 80 80 86 93 97 97 99 104 107 112 108 107
62 56 50 60 10 34 44 339 298 327 321 336 2 61 50 10 62 6 70 46 73 73 93 112 79 78 77 77 81 85 83 87 91 94 98 100 102 103 104 105 108 108 106 107
64 37 45 55 350 2 340 352 5 350 322 1 79 55 54 24 69 30 101 56 68 38 122 91 106 104 98 94 96 99 99 101 103 106 106 105 105 104 104 103 104 103 103 100
68 48 37 357 40 348 2 358 354 12 24 64 47 81 63 43 52 50 30 86 107 134 93 118 118 115 114 112 109 107 108 107 107 105 104 104 102 102 103 104 97 95 95 94
51 38 26 28 9 311 331 341 339 2 23 58 42 55 53 72 68 67 27 95 118 114 108 121 127 123 120 117 114 114 114 113 111 109 104 102 105 106 101 95 95 95 93 93
Height
1449 1451 1454 1456 1458 1460 1460 1462 1462 1459 1461 1466 1462 1460 1463 1463 1461 1460 1460 1461 1460 1458 1453 1449 1443 1439 1435 1431 1427 1426 1428 1432 1434 1427 1424 1427 1430 1432 1434 1440 1442 1451 1451 1436
1442 1445 1447 1450 1453 1455 1457 1456 1456 1456 1458 1455 1456 1458 1458 1457 1458 1459 1460 1459 1458 1456 1454 1454 1445 1441 1435 1434 1429 1430 1430 1434 1437 1433 1432 1431 1437 1440 1441 1443 1447 1445 1449 1438
1434 1437 1440 1444 1447 1450 1453 1454 1450 1450 1451 1450 1451 1452 1453 1454 1454 1457 1458 1460 1458 1455 1453 1450 1447 1443 1438 1435 1434 1432 1430 1431 1435 1434 1437 1438 1441 1439 1439 1440 1445 1443 1441 1437
1426 1429 1432 1436 1440 1445 1448 1446 1440 1441 1440 1444 1446 1449 1448 1447 1449 1452 1453 1457 1457 1457 1455 1452 1447 1444 1443 1439 1437 1433 1433 1435 1434 1432 1434 1437 1436 1436 1436 1440 1439 1441 1433 1430
1417 1420 1424 1428 1433 1437 1439 1436 1436 1438 1438 1438 1441 1444 1439 1439 1443 1444 1448 1452 1452 1453 1453 1450 1445 1447 1446 1445 1441 1438 1439 1439 1441 1442 1436 1434 1437 1435 1433 1432 1430 1427 1426 1427
1407 1411 1415 1420 1424 1429 1428 1430 1431 1433 1431 1434 1438 1432 1433 1436 1439 1439 1440 1446 1451 1451 1448 1448 1445 1444 1445 1445 1448 1446 1444 1441 1442 1439 1441 1438 1438 1428 1424 1420 1416 1416 1419 1413
1396 1400 1405 1410 1414 1418 1422 1424 1427 1429 1424 1428 1426 1428 1430 1430 1430 1434 1438 1443 1447 1445 1445 1444 1441 1438 1439 1440 1442 1445 1444 1444 1450 1445 1445 1441 1419 1418 1419 1420 1415 1412 1412 1414
1385 1389 1394 1399 1403 1409 1413 1418 1421 1417 1417 1419 1420 1423 1427 1430 1429 1429 1433 1436 1439 1445 1446 1445 1439 1438 1436 1432 1434 1438 1441 1443 1445 1443 1440 1426 1417 1414 1416 1418 1410 1413 1413 1412
1373 1377 1381 1387 1392 1399 1406 1408 1414 1415 1412 1406 1416 1419 1421 1424 1427 1428 1430 1435 1437 1442 1445 1443 1440 1433 1429 1431 1429 1432 1439 1440 1443 1445 1438 1435 1420 1416 1415 1412 1413 1407 1408 1406
1358 1362 1367 1373 1380 1388 1396 1396 1403 1407 1403 1404 1408 1410 1415 1420 1420 1421 1425 1430 1435 1439 1439 1439 1437 1434 1430 1427 1424 1430 1436 1442 1439 1438 1436 1423 1415 1414 1415 1416 1413 1408 1406 1403
1343 1347 1351 1357 1367 1376 1384 1386 1391 1396 1397 1398 1400 1402 1408 1413 1415 1415 1419 1427 1429 1432 1434 1434 1432 1433 1427 1424 1423 1426 1427 1430 1432 1433 1436 1429 1411 1412 1414 1409 1408 1405 1403 1401
1331 1334 1335 1344 1354 1364 1372 1376 1381 1389 1393 1393 1395 1397 1401 1404 1407 1413 1415 1414 1416 1420 1424 1427 1425 1428 1428 1420 1419 1422 1421 1418 1419 1419 1412 1408 1409 1409 1409 1408 1406 1403 1400 1397
1321 1325 1329 1336 1344 1352 1361 1364 1371 1380 1384 1388 1391 1391 1394 1399 1402 1407 1410 1411 1412 1413 1415 1417 1418 1418 1420 1418 1418 1413 1415 1413 1414 1414 1406 1405 1405 1408 1409 1406 1402 1399 1396 1393
1311 1316 1323 1330 1337 1345 1353 1359 1366 1372 1379 1383 1384 1384 1388 1391 1398 1401 1403 1407 1409 1412 1415 1416 1416 1415 1412 1412 1407 1409 1407 1409 1409 1405 1405 1403 1405 1407 1406 1403 1400 1397 1394 1392
1305 1310 1316 1324 1333 1342 1350 1358 1363 1369 1376 1379 1382 1381 1383 1389 1393 1397 1400 1404 1407 1408 1412 1413 1411 1410 1411 1411 1410 1406 1406 1405 1405 1401 1411 1411 1409 1407 1404 1401 1398 1396 1393 1391
1300 1306 1313 1321 1328 1338 1349 1354 1360 1364 1372 1378 1381 1380 1380 1382 1387 1390 1393 1397 1403 1406 1405 1406 1407 1406 1408 1408 1404 1405 1407 1407 1407 1408 1409 1409 1407 1406 1402 1399 1396 1394 1391 1389
1295 1302 1310 1319 1328 1335 1342 1347 1346 1357 1371 1377 1380 1377 1376 1378 1384 1388 1391 1394 1399 1399 1399 1402 1403 1402 1402 1405 1400 1409 1409 1409 1407 1406 1405 1403 1401 1401 1399 1396 1394 1391 1388 1387
1292 1301 1310 1318 1328 1337 1343 1342 1345 1355 1366 1372 1375 1374 1375 1375 1379 1384 1387 1389 1392 1392 1394 1397 1397 1400 1401 1397 1408 1410 1410 1409 1407 1404 1403 1402 1400 1397 1396 1394 1393 1390 1386 1384
1291 1302 1312 1320 1327 1333 1339 1347 1352 1358 1366 1366 1369 1371 1370 1372 1374 1378 1384 1386 1388 1389 1389 1392 1395 1397 1396 1408 1408 1408 1408 1409 1406 1403 1402 1400 1397 1394 1395 1394 1392 1390 1389 1385
1293 1305 1312 1320 1329 1333 1341 1352 1356 1360 1363 1364 1365 1365 1367 1369 1369 1374 1380 1381 1383 1384 1389 1391 1396 1405 1409 1409 1409 1408 1408 1407 1405 1401 1401 1399 1396 1395 1394 1393 1393 1392 1391 1389
1301 1305 1310 1323 1332 1336 1340 1347 1352 1358 1360 1360 1360 1361 1361 1366 1365 1369 1372 1375 1379 1379 1387 1390 1399 1404 1410 1411 1409 1407 1406 1404 1403 1402 1401 1399 1397 1396 1395 1393 1394 1394 1393 1391
1305 1309 1322 1328 1333 1337 1342 1347 1351 1352 1351 1355 1356 1357 1359 1360 1361 1363 1370 1370 1376 1376 1389 1393 1402 1410 1413 1412 1410 1408 1405 1404 1403 1403 1402 1400 1397 1397 1396 1397 1397 1396 1396 1394
1317 1320 1328 1336 1344 1352 1353 1348 1351 1352 1355 1355 1353 1354 1354 1355 1356 1356 1359 1365 1380 1387 1393 1402 1408 1411 1412 1411 1410 1408 1407 1406 1404 1404 1403 1402 1401 1400 1400 1401 1401 1401 1400 1400
1321 1331 1346 1352 1360 1361 1362 1362 1360 1358 1356 1354 1353 1352 1353 1356 1358 1362 1366 1384 1384 1395 1400 1407 1411 1413 1413 1412 1411 1410 1410 1409 1409 1409 1408 1407 1407 1407 1408 1408 1409 1409 1408 1409
1336 1344 1360 1363 1366 1364 1362 1360 1359 1359 1357 1355 1355 1357 1359 1364 1368 1376 1381 1388 1399 1401 1406 1412 1414 1415 1415 1415 1415 1414 1414 1415 1415 1416 1415 1415 1415 1414 1415 1416 1416 1416 1415 1415
1349 1362 1367 1368 1367 1366 1364 1362 1360 1359 1357 1358 1359 1363 1370 1377 1380 1387 1399 1394 1404 1411 1413 1415 1416 1417 1418 1418 1418 1418 1420 1421 1422 1422 1422 1422 1422 1421 1421 1422 1422 1423 1423 1421
1363 1373 1373 1372 1371 1371 1369 1366 1363 1361 1361 1364 1367 1374 1383 1384 1391 1400 1404 1408 1411 1413 1416 1418 1419 1420 1421 1422 1423 1425 1426 1427 1427 1427 1427 1426 1427 1427 1426 1425 1426 1427 1427 1426